Location: Santa Margarita Marsh
(33.2351°N, 117.4143°W)
Time: 06:04:41
(UTC+00:00)

Daily predictions for brighter satellites

Satellite Brightness Start Highest point End
(mag) Time Altitude Azimuth Time Altitude Azimuth Time Altitude Azimuth
H-2A R/B 4.2 12:01:35 10° N 12:05:01 31° WNW 12:08:09 12° SW
NOSS 2-3 (C) 3.9 12:04:07 10° S 12:07:39 45° ESE 12:11:01 10° NE
ADEOS Rocket 3.6 12:01:14 10° N 12:09:01 83° WNW 12:16:40 10° SSW
SL-08 RB Rocket 4.0 12:04:49 10° NNE 12:09:22 72° ESE 12:13:51 10° S
Lacrosse 4 Rocket 1.6 12:06:52 11° SW 12:10:35 51° WNW 12:14:37 10° NNE
NOSS 2-3 (D) 3.7 12:08:54 10° SSW 12:12:43 57° ESE 12:16:20 10° NE
Cosmos 1766 Rocket 4.4 12:09:30 10° SW 12:13:20 31° W 12:17:11 10° NNW
Cosmos 371 Rocket 4.3 12:09:31 10° N 12:14:11 50° ENE 12:18:48 10° SSE
Cosmos 1408 Rocket 4.3 12:11:52 10° S 12:16:01 55° E 12:20:13 10° NNE
Cosmos 1331 Rocket 4.2 12:18:32 10° SSW 12:23:32 52° WNW 12:28:32 10° N
Cosmos 1300 4.1 12:21:09 10° SSE 12:23:57 32° E 12:26:47 10° NNE
Cosmos 1437 Rocket 3.4 12:20:47 10° NNW 12:24:02 31° W 12:27:14 10° SSW
ARGOS 3.4 12:19:04 10° N 12:24:20 55° WNW 12:29:35 10° SSW
Cosmos 1943 Rocket 3.6 12:19:26 10° N 12:24:51 45° ENE 12:30:14 10° SE
OAO 3 Rocket 3.1 12:20:11 10° W 12:24:53 68° SSW 12:29:29 10° ESE
